Time,TemperatureF,DewpointF,PressureIn,WindDirection,WindDirectionDegrees,WindSpeedMPH,WindSpeedGustMPH,Humidity,HourlyPrecipIn,Conditions,Clouds,dailyrainin,SoftwareType,DateUTC
2013-05-13 00:01:00,56.9,52.4,30.02,SW,225,1.3,5.4,85,0.00,,,0.00,WUHU216HW,2013-05-13 07:01:00,
2013-05-13 00:06:00,56.7,52.2,30.03,South,180,1.3,4.9,85,0.00,,,0.00,WUHU216HW,2013-05-13 07:06:00,
2013-05-13 00:11:00,56.7,52.2,30.03,West,270,1.3,4.5,85,0.00,,,0.00,WUHU216HW,2013-05-13 07:11:00,
2013-05-13 00:16:00,56.7,52.2,30.03,WSW,248,1.3,3.4,85,0.01,,,0.01,WUHU216HW,2013-05-13 07:16:00,
2013-05-13 00:21:00,56.5,52.0,30.03,WSW,248,2.0,3.4,85,0.02,,,0.02,WUHU216HW,2013-05-13 07:21:00,
2013-05-13 00:26:00,56.5,52.0,30.04,ESE,113,0.4,4.3,85,0.02,,,0.02,WUHU216HW,2013-05-13 07:26:00,
2013-05-13 00:31:00,56.3,51.8,30.03,SW,225,0.9,7.6,85,0.02,,,0.02,WUHU216HW,2013-05-13 07:31:00,
2013-05-13 00:36:00,56.2,51.7,30.03,WSW,248,4.7,7.6,85,0.02,,,0.02,WUHU216HW,2013-05-13 07:36:00,
2013-05-13 00:41:00,56.2,52.0,30.03,SW,225,0.0,4.7,86,0.02,,,0.02,WUHU216HW,2013-05-13 07:41:00,
2013-05-13 00:46:00,56.2,52.0,30.03,SSE,158,1.6,3.4,86,0.02,,,0.02,WUHU216HW,2013-05-13 07:46:00,
2013-05-13 00:51:00,56.2,52.0,30.03,West,270,2.2,3.4,86,0.02,,,0.02,WUHU216HW,2013-05-13 07:51:00,
2013-05-13 00:56:00,56.0,51.9,30.03,SSW,203,1.1,3.8,86,0.02,,,0.02,WUHU216HW,2013-05-13 07:56:00,
2013-05-13 01:01:00,56.0,51.9,30.03,South,180,0.2,3.8,86,0.02,,,0.02,WUHU216HW,2013-05-13 08:01:00,
2013-05-13 01:06:00,56.0,51.9,30.03,SSE,158,0.4,2.0,86,0.03,,,0.03,WUHU216HW,2013-05-13 08:06:00,
2013-05-13 01:11:00,56.0,51.9,30.03,SSW,203,0.7,3.4,86,0.03,,,0.03,WUHU216HW,2013-05-13 08:11:00,
2013-05-13 01:16:00,55.8,51.7,30.03,SW,225,1.1,4.5,86,0.02,,,0.03,WUHU216HW,2013-05-13 08:16:00,
2013-05-13 01:21:00,55.8,51.7,30.02,SW,225,0.4,5.1,86,0.01,,,0.03,WUHU216HW,2013-05-13 08:21:00,
2013-05-13 01:26:00,55.8,51.7,30.03,WSW,248,3.4,5.4,86,0.01,,,0.03,WUHU216HW,2013-05-13 08:26:00,
2013-05-13 01:31:00,55.8,51.7,30.03,SW,225,0.9,5.4,86,0.01,,,0.03,WUHU216HW,2013-05-13 08:31:00,
2013-05-13 01:36:00,55.8,51.7,30.03,SW,225,0.2,3.4,86,0.01,,,0.03,WUHU216HW,2013-05-13 08:36:00,
2013-05-13 01:41:00,55.8,51.7,30.03,SW,225,0.7,2.5,86,0.01,,,0.03,WUHU216HW,2013-05-13 08:41:00,
2013-05-13 01:46:00,55.6,51.5,30.02,North,0,0.4,1.6,86,0.01,,,0.03,WUHU216HW,2013-05-13 08:46:00,
2013-05-13 01:51:00,55.6,51.5,30.02,SW,225,0.4,1.8,86,0.01,,,0.03,WUHU216HW,2013-05-13 08:51:00,
2013-05-13 01:56:00,55.6,51.5,30.02,SW,225,0.9,2.7,86,0.01,,,0.03,WUHU216HW,2013-05-13 08:56:00,
2013-05-13 02:01:00,55.4,51.3,30.02,SW,225,0.2,2.7,86,0.01,,,0.03,WUHU216HW,2013-05-13 09:01:00,
2013-05-13 02:06:00,55.4,51.3,30.03,SW,225,1.3,3.4,86,0.00,,,0.03,WUHU216HW,2013-05-13 09:06:00,
2013-05-13 02:11:00,55.4,51.3,30.03,SW,225,0.9,3.4,86,0.00,,,0.03,WUHU216HW,2013-05-13 09:11:00,
2013-05-13 02:16:00,55.4,51.3,30.03,WSW,248,0.9,3.4,86,0.00,,,0.03,WUHU216HW,2013-05-13 09:16:00,
2013-05-13 02:21:00,55.4,51.3,30.03,SSE,158,0.7,3.4,86,0.00,,,0.03,WUHU216HW,2013-05-13 09:21:00,
2013-05-13 02:26:00,55.3,51.4,30.03,WSW,248,1.3,3.4,87,0.00,,,0.03,WUHU216HW,2013-05-13 09:26:00,
2013-05-13 02:31:00,55.3,51.4,30.02,SW,225,1.8,2.5,87,0.00,,,0.03,WUHU216HW,2013-05-13 09:31:00,
2013-05-13 02:36:00,55.3,51.4,30.02,SW,225,0.4,2.5,87,0.00,,,0.03,WUHU216HW,2013-05-13 09:36:00,
2013-05-13 02:41:00,55.3,51.4,30.02,SSW,203,0.4,2.5,87,0.00,,,0.03,WUHU216HW,2013-05-13 09:41:00,
2013-05-13 02:46:00,55.1,51.2,30.02,West,270,1.3,2.2,87,0.00,,,0.03,WUHU216HW,2013-05-13 09:46:00,
2013-05-13 02:51:00,55.1,51.2,30.02,SW,225,1.1,2.2,87,0.01,,,0.04,WUHU216HW,2013-05-13 09:51:00,
2013-05-13 02:56:00,55.1,51.2,30.02,SW,225,0.4,2.2,87,0.01,,,0.04,WUHU216HW,2013-05-13 09:56:00,
2013-05-13 03:01:00,55.1,51.2,30.02,SW,225,0.9,2.2,87,0.01,,,0.04,WUHU216HW,2013-05-13 10:01:00,
2013-05-13 03:06:00,55.1,51.2,30.02,WSW,248,1.8,1.8,87,0.01,,,0.04,WUHU216HW,2013-05-13 10:06:00,
2013-05-13 03:11:00,55.1,51.2,30.02,SW,225,1.3,2.7,87,0.01,,,0.04,WUHU216HW,2013-05-13 10:11:00,
2013-05-13 03:16:00,55.1,51.2,30.02,WSW,248,1.8,2.7,87,0.01,,,0.04,WUHU216HW,2013-05-13 10:16:00,
2013-05-13 03:21:00,55.1,51.2,30.02,SW,225,0.4,2.5,87,0.01,,,0.04,WUHU216HW,2013-05-13 10:21:00,
2013-05-13 03:26:00,55.1,51.2,30.02,WSW,248,0.9,2.5,87,0.01,,,0.04,WUHU216HW,2013-05-13 10:26:00,
2013-05-13 03:31:00,55.1,51.2,30.02,SW,225,0.2,2.5,87,0.01,,,0.04,WUHU216HW,2013-05-13 10:31:00,
2013-05-13 03:36:00,55.1,51.2,30.02,SSW,203,0.2,2.0,87,0.01,,,0.04,WUHU216HW,2013-05-13 10:36:00,
2013-05-13 03:41:00,55.1,51.2,30.02,SSE,158,0.4,2.5,87,0.01,,,0.04,WUHU216HW,2013-05-13 10:41:00,
2013-05-13 03:46:00,55.1,51.6,30.01,SW,225,0.4,2.5,88,0.01,,,0.04,WUHU216HW,2013-05-13 10:46:00,
2013-05-13 03:51:00,55.1,51.6,30.01,SSW,203,2.5,2.5,88,0.00,,,0.04,WUHU216HW,2013-05-13 10:51:00,
2013-05-13 03:56:00,55.1,51.6,30.01,SSW,203,0.2,2.5,88,0.00,,,0.04,WUHU216HW,2013-05-13 10:56:00,
2013-05-13 04:01:00,54.9,51.4,30.00,SE,135,0.0,2.5,88,0.00,,,0.04,WUHU216HW,2013-05-13 11:01:00,
2013-05-13 04:06:00,54.9,51.4,30.00,SW,225,0.4,1.3,88,0.00,,,0.04,WUHU216HW,2013-05-13 11:06:00,
2013-05-13 04:11:00,54.9,51.4,30.00,SSE,158,0.4,1.8,88,0.00,,,0.04,WUHU216HW,2013-05-13 11:11:00,
2013-05-13 04:16:00,54.9,51.4,30.00,SW,225,1.8,1.8,88,0.00,,,0.04,WUHU216HW,2013-05-13 11:16:00,
2013-05-13 04:21:00,54.9,51.4,30.00,SSW,203,0.4,1.8,88,0.00,,,0.04,WUHU216HW,2013-05-13 11:21:00,
2013-05-13 04:26:00,54.9,51.4,30.00,SW,225,0.4,1.8,88,0.00,,,0.04,WUHU216HW,2013-05-13 11:26:00,
2013-05-13 04:31:00,54.9,51.4,30.00,SW,225,0.9,1.8,88,0.00,,,0.04,WUHU216HW,2013-05-13 11:31:00,
2013-05-13 04:36:00,54.9,51.4,29.99,SW,225,1.8,2.9,88,0.00,,,0.04,WUHU216HW,2013-05-13 11:36:00,
2013-05-13 04:41:00,54.9,51.4,30.00,SSW,203,1.6,2.9,88,0.00,,,0.04,WUHU216HW,2013-05-13 11:41:00,
2013-05-13 04:46:00,54.9,51.4,30.00,SW,225,1.1,2.5,88,0.00,,,0.04,WUHU216HW,2013-05-13 11:46:00,
2013-05-13 04:51:00,54.9,51.4,30.00,ENE,68,0.7,4.7,88,0.00,,,0.04,WUHU216HW,2013-05-13 11:51:00,
2013-05-13 04:56:00,54.9,51.4,30.00,SSE,158,0.2,4.7,88,0.00,,,0.04,WUHU216HW,2013-05-13 11:56:00,
2013-05-13 05:01:00,54.9,51.4,30.00,SW,225,0.4,2.9,88,0.00,,,0.04,WUHU216HW,2013-05-13 12:01:00,
2013-05-13 05:06:00,55.1,51.8,30.00,SW,225,0.2,5.1,89,0.00,,,0.04,WUHU216HW,2013-05-13 12:06:00,
2013-05-13 05:11:00,55.1,51.8,30.00,WSW,248,1.1,5.1,89,0.00,,,0.04,WUHU216HW,2013-05-13 12:11:00,
2013-05-13 05:16:00,55.1,51.6,30.00,SW,225,0.9,3.8,88,0.00,,,0.04,WUHU216HW,2013-05-13 12:16:00,
2013-05-13 05:21:00,55.1,51.6,30.00,SW,225,0.2,3.8,88,0.00,,,0.04,WUHU216HW,2013-05-13 12:21:00,
2013-05-13 05:26:00,55.1,51.8,30.00,SW,225,2.7,3.4,89,0.00,,,0.04,WUHU216HW,2013-05-13 12:26:00,
2013-05-13 05:31:00,55.1,51.6,30.00,SW,225,0.4,3.4,88,0.00,,,0.04,WUHU216HW,2013-05-13 12:31:00,
2013-05-13 05:36:00,55.1,51.8,30.00,SW,225,1.8,3.4,89,0.00,,,0.04,WUHU216HW,2013-05-13 12:36:00,
2013-05-13 05:41:00,55.1,51.8,29.99,WSW,248,0.4,3.4,89,0.00,,,0.04,WUHU216HW,2013-05-13 12:41:00,
2013-05-13 05:46:00,55.1,51.8,29.99,WSW,248,1.8,4.0,89,0.00,,,0.04,WUHU216HW,2013-05-13 12:46:00,
2013-05-13 05:51:00,55.1,51.8,29.99,SSW,203,0.9,4.5,89,0.00,,,0.04,WUHU216HW,2013-05-13 12:51:00,
2013-05-13 05:56:00,55.1,51.6,29.99,SSW,203,0.7,4.5,88,0.00,,,0.04,WUHU216HW,2013-05-13 12:56:00,
2013-05-13 06:01:00,55.3,51.8,29.99,WSW,248,0.2,2.0,88,0.00,,,0.04,WUHU216HW,2013-05-13 13:01:00,
2013-05-13 06:06:00,55.3,51.8,29.99,SE,135,0.0,2.0,88,0.00,,,0.04,WUHU216HW,2013-05-13 13:06:00,
2013-05-13 06:11:00,55.3,51.8,29.99,NNW,338,0.0,1.1,88,0.00,,,0.04,WUHU216HW,2013-05-13 13:11:00,
2013-05-13 06:16:00,55.3,51.8,29.99,NW,315,0.4,0.4,88,0.00,,,0.04,WUHU216HW,2013-05-13 13:16:00,
2013-05-13 06:21:00,55.3,51.8,29.99,ESE,113,0.2,0.4,88,0.00,,,0.04,WUHU216HW,2013-05-13 13:21:00,
2013-05-13 06:26:00,55.1,51.6,29.99,SE,135,0.7,0.9,88,0.00,,,0.04,WUHU216HW,2013-05-13 13:26:00,
2013-05-13 06:31:00,55.1,51.6,29.99,SSW,203,0.2,1.8,88,0.00,,,0.04,WUHU216HW,2013-05-13 13:31:00,
2013-05-13 06:36:00,55.3,51.8,29.99,SSW,203,0.0,1.8,88,0.00,,,0.04,WUHU216HW,2013-05-13 13:36:00,
2013-05-13 06:41:00,55.3,51.8,29.99,SSE,158,0.0,0.4,88,0.00,,,0.04,WUHU216HW,2013-05-13 13:41:00,
2013-05-13 06:46:00,55.4,51.9,29.99,SSE,158,0.2,0.4,88,0.00,,,0.04,WUHU216HW,2013-05-13 13:46:00,
2013-05-13 06:51:00,55.4,51.9,29.99,WSW,248,0.7,0.9,88,0.00,,,0.04,WUHU216HW,2013-05-13 13:51:00,
2013-05-13 06:56:00,55.4,51.9,29.99,SW,225,0.0,1.6,88,0.00,,,0.04,WUHU216HW,2013-05-13 13:56:00,
2013-05-13 07:01:00,55.4,51.9,29.99,WSW,248,0.7,1.8,88,0.00,,,0.04,WUHU216HW,2013-05-13 14:01:00,
2013-05-13 07:06:00,55.6,52.1,29.99,WSW,248,0.2,3.1,88,0.00,,,0.04,WUHU216HW,2013-05-13 14:06:00,
2013-05-13 07:11:00,55.8,52.3,29.99,WSW,248,0.0,3.1,88,0.00,,,0.04,WUHU216HW,2013-05-13 14:11:00,
2013-05-13 07:16:00,55.8,52.3,29.99,WSW,248,0.7,1.8,88,0.00,,,0.04,WUHU216HW,2013-05-13 14:16:00,
2013-05-13 07:21:00,56.0,52.5,29.99,WSW,248,1.6,2.7,88,0.00,,,0.04,WUHU216HW,2013-05-13 14:21:00,
2013-05-13 07:26:00,56.0,52.5,29.99,WSW,248,2.5,4.0,88,0.00,,,0.04,WUHU216HW,2013-05-13 14:26:00,
2013-05-13 07:31:00,56.2,52.7,29.99,South,180,1.1,4.0,88,0.00,,,0.04,WUHU216HW,2013-05-13 14:31:00,
2013-05-13 07:36:00,56.3,52.8,29.99,SE,135,0.9,3.1,88,0.00,,,0.04,WUHU216HW,2013-05-13 14:36:00,
2013-05-13 07:41:00,56.3,52.8,29.99,SW,225,4.7,4.7,88,0.00,,,0.04,WUHU216HW,2013-05-13 14:41:00,
2013-05-13 07:46:00,56.3,52.8,29.99,WSW,248,1.8,4.7,88,0.00,,,0.04,WUHU216HW,2013-05-13 14:46:00,
2013-05-13 07:51:00,56.5,53.0,29.99,SSW,203,0.9,4.5,88,0.00,,,0.04,WUHU216HW,2013-05-13 14:51:00,
2013-05-13 07:56:00,56.5,53.0,29.99,SSW,203,2.0,4.5,88,0.00,,,0.04,WUHU216HW,2013-05-13 14:56:00,
2013-05-13 08:01:00,56.7,53.2,29.99,SSW,203,0.0,3.4,88,0.00,,,0.04,WUHU216HW,2013-05-13 15:01:00,
2013-05-13 08:06:00,56.7,53.2,29.99,South,180,0.7,2.5,88,0.00,,,0.04,WUHU216HW,2013-05-13 15:06:00,
2013-05-13 08:11:00,56.9,53.4,29.99,West,270,0.9,2.7,88,0.00,,,0.04,WUHU216HW,2013-05-13 15:11:00,
2013-05-13 08:16:00,57.1,53.6,29.99,SW,225,0.4,2.7,88,0.00,,,0.04,WUHU216HW,2013-05-13 15:16:00,
2013-05-13 08:21:00,57.2,53.7,29.99,West,270,1.3,2.5,88,0.00,,,0.04,WUHU216HW,2013-05-13 15:21:00,
2013-05-13 08:26:00,57.4,53.9,29.99,SSW,203,0.4,4.9,88,0.00,,,0.04,WUHU216HW,2013-05-13 15:26:00,
2013-05-13 08:31:00,57.6,53.7,29.99,SSE,158,1.1,4.9,87,0.00,,,0.04,WUHU216HW,2013-05-13 15:31:00,
2013-05-13 08:36:00,57.8,53.9,29.99,SSE,158,0.4,2.9,87,0.00,,,0.04,WUHU216HW,2013-05-13 15:36:00,
2013-05-13 08:41:00,57.8,53.9,29.99,SW,225,1.3,4.7,87,0.00,,,0.04,WUHU216HW,2013-05-13 15:41:00,
2013-05-13 08:46:00,58.0,54.1,29.99,SE,135,2.2,4.7,87,0.00,,,0.04,WUHU216HW,2013-05-13 15:46:00,
2013-05-13 08:51:00,58.0,54.1,29.99,West,270,0.9,4.5,87,0.00,,,0.04,WUHU216HW,2013-05-13 15:51:00,
2013-05-13 08:56:00,58.0,54.1,29.99,WSW,248,1.6,3.1,87,0.00,,,0.04,WUHU216HW,2013-05-13 15:56:00,
2013-05-13 09:01:00,58.0,54.1,29.99,SW,225,1.8,4.0,87,0.00,,,0.04,WUHU216HW,2013-05-13 16:01:00,
2013-05-13 09:06:00,58.1,54.3,29.98,SW,225,2.5,4.0,87,0.00,,,0.04,WUHU216HW,2013-05-13 16:06:00,
2013-05-13 09:11:00,58.1,54.3,29.98,SSE,158,0.4,2.7,87,0.00,,,0.04,WUHU216HW,2013-05-13 16:11:00,
2013-05-13 09:16:00,58.3,54.8,29.98,ESE,113,0.2,2.7,88,0.00,,,0.04,WUHU216HW,2013-05-13 16:16:00,
2013-05-13 09:21:00,58.3,54.5,29.98,SW,225,0.4,4.9,87,0.00,,,0.04,WUHU216HW,2013-05-13 16:21:00,
2013-05-13 09:26:00,58.3,54.5,29.98,WSW,248,1.6,4.9,87,0.00,,,0.04,WUHU216HW,2013-05-13 16:26:00,
2013-05-13 09:31:00,58.5,54.6,29.97,West,270,1.8,4.0,87,0.00,,,0.04,WUHU216HW,2013-05-13 16:31:00,
2013-05-13 09:36:00,58.7,54.8,29.97,South,180,1.1,4.3,87,0.00,,,0.04,WUHU216HW,2013-05-13 16:36:00,
2013-05-13 09:41:00,58.7,54.8,29.97,NW,315,3.1,4.3,87,0.00,,,0.04,WUHU216HW,2013-05-13 16:41:00,
2013-05-13 09:46:00,58.7,54.8,29.97,SW,225,3.4,4.9,87,0.00,,,0.04,WUHU216HW,2013-05-13 16:46:00,
2013-05-13 09:51:00,58.5,54.6,29.97,WSW,248,1.6,6.0,87,0.00,,,0.04,WUHU216HW,2013-05-13 16:51:00,
2013-05-13 09:56:00,58.3,54.5,29.97,SW,225,1.8,6.0,87,0.00,,,0.04,WUHU216HW,2013-05-13 16:56:00,
2013-05-13 10:01:00,58.3,54.5,29.97,West,270,0.7,4.5,87,0.00,,,0.04,WUHU216HW,2013-05-13 17:01:00,
2013-05-13 10:06:00,58.5,54.6,29.97,WSW,248,3.4,4.5,87,0.00,,,0.04,WUHU216HW,2013-05-13 17:06:00,
2013-05-13 10:11:00,58.7,54.8,29.97,SW,225,2.9,4.3,87,0.00,,,0.04,WUHU216HW,2013-05-13 17:11:00,
2013-05-13 10:16:00,59.2,55.4,29.97,SW,225,2.9,4.5,87,0.00,,,0.04,WUHU216HW,2013-05-13 17:16:00,
2013-05-13 10:21:00,59.9,56.1,29.96,WSW,248,2.5,5.1,87,0.00,,,0.04,WUHU216HW,2013-05-13 17:21:00,
2013-05-13 10:26:00,60.8,57.0,29.96,WSW,248,6.3,10.5,87,0.00,,,0.04,WUHU216HW,2013-05-13 17:26:00,
2013-05-13 10:31:00,61.4,56.9,29.96,ENE,68,2.0,10.5,85,0.00,,,0.04,WUHU216HW,2013-05-13 17:31:00,
2013-05-13 10:36:00,62.3,57.7,29.96,WSW,248,2.9,8.9,85,0.00,,,0.04,WUHU216HW,2013-05-13 17:36:00,
2013-05-13 10:41:00,62.3,57.3,29.96,WSW,248,3.6,8.9,84,0.00,,,0.04,WUHU216HW,2013-05-13 17:41:00,
2013-05-13 10:46:00,61.6,56.3,29.96,WSW,248,4.0,4.9,83,0.00,,,0.04,WUHU216HW,2013-05-13 17:46:00,
2013-05-13 10:51:00,61.2,56.1,29.96,SW,225,1.1,4.9,83,0.00,,,0.04,WUHU216HW,2013-05-13 17:51:00,
2013-05-13 10:56:00,61.2,56.1,29.96,SW,225,2.5,4.3,83,0.00,,,0.04,WUHU216HW,2013-05-13 17:56:00,
2013-05-13 11:01:00,61.2,56.1,29.95,SSW,203,1.3,6.3,83,0.00,,,0.04,WUHU216HW,2013-05-13 18:01:00,
2013-05-13 11:06:00,61.4,56.2,29.95,WSW,248,1.1,6.3,83,0.00,,,0.04,WUHU216HW,2013-05-13 18:06:00,
2013-05-13 11:11:00,61.7,56.5,29.95,WSW,248,2.0,6.9,83,0.00,,,0.04,WUHU216HW,2013-05-13 18:11:00,
2013-05-13 11:16:00,61.9,56.7,29.95,SSW,203,1.1,6.9,83,0.00,,,0.04,WUHU216HW,2013-05-13 18:16:00,
2013-05-13 11:21:00,62.3,56.7,29.95,WSW,248,0.9,4.9,82,0.00,,,0.04,WUHU216HW,2013-05-13 18:21:00,
2013-05-13 11:26:00,62.6,57.1,29.95,SSE,158,6.3,6.3,82,0.00,,,0.04,WUHU216HW,2013-05-13 18:26:00,
2013-05-13 11:31:00,62.6,56.7,29.94,NW,315,1.6,6.3,81,0.00,,,0.04,WUHU216HW,2013-05-13 18:31:00,
2013-05-13 11:36:00,62.3,56.3,29.94,WSW,248,2.9,6.7,81,0.01,,,0.05,WUHU216HW,2013-05-13 18:36:00,
2013-05-13 11:41:00,61.7,56.2,29.94,SW,225,1.8,6.7,82,0.03,,,0.07,WUHU216HW,2013-05-13 18:41:00,
2013-05-13 11:46:00,61.4,56.2,29.94,WSW,248,1.1,5.6,83,0.03,,,0.07,WUHU216HW,2013-05-13 18:46:00,
2013-05-13 11:51:00,61.2,56.1,29.94,SW,225,4.0,6.3,83,0.03,,,0.07,WUHU216HW,2013-05-13 18:51:00,
2013-05-13 11:56:00,61.2,56.1,29.93,West,270,1.1,6.3,83,0.03,,,0.07,WUHU216HW,2013-05-13 18:56:00,
2013-05-13 12:01:00,61.2,56.1,29.93,SSW,203,0.4,5.4,83,0.03,,,0.07,WUHU216HW,2013-05-13 19:01:00,
2013-05-13 12:06:00,61.2,56.3,29.93,SW,225,3.4,4.7,84,0.03,,,0.07,WUHU216HW,2013-05-13 19:06:00,
2013-05-13 12:11:00,61.0,56.2,29.93,SW,225,2.7,5.1,84,0.03,,,0.07,WUHU216HW,2013-05-13 19:11:00,
2013-05-13 12:16:00,61.0,56.2,29.93,SSW,203,3.1,5.4,84,0.03,,,0.07,WUHU216HW,2013-05-13 19:16:00,
2013-05-13 12:21:00,60.8,56.0,29.93,SW,225,3.4,5.4,84,0.03,,,0.07,WUHU216HW,2013-05-13 19:21:00,
2013-05-13 12:26:00,60.7,55.8,29.93,West,270,2.0,5.4,84,0.03,,,0.07,WUHU216HW,2013-05-13 19:26:00,
2013-05-13 12:31:00,60.5,56.0,29.93,SW,225,6.0,6.0,85,0.03,,,0.07,WUHU216HW,2013-05-13 19:31:00,
2013-05-13 12:36:00,60.1,55.6,29.93,WSW,248,2.0,6.3,85,0.02,,,0.07,WUHU216HW,2013-05-13 19:36:00,
2013-05-13 12:41:00,59.9,55.4,29.93,SW,225,3.4,6.3,85,0.01,,,0.08,WUHU216HW,2013-05-13 19:41:00,
2013-05-13 12:46:00,59.8,55.3,29.92,WSW,248,2.2,3.8,85,0.02,,,0.09,WUHU216HW,2013-05-13 19:46:00,
2013-05-13 12:51:00,59.6,55.1,29.92,SSW,203,1.1,3.8,85,0.02,,,0.09,WUHU216HW,2013-05-13 19:51:00,
2013-05-13 12:56:00,59.8,55.6,29.92,SSW,203,1.8,3.1,86,0.02,,,0.09,WUHU216HW,2013-05-13 19:56:00,
2013-05-13 13:01:00,59.6,55.5,29.92,WSW,248,6.5,6.5,86,0.02,,,0.09,WUHU216HW,2013-05-13 20:01:00,
2013-05-13 13:06:00,59.0,54.5,29.93,SSE,158,3.1,7.2,85,0.04,,,0.11,WUHU216HW,2013-05-13 20:06:00,
2013-05-13 13:11:00,58.3,53.8,29.94,WSW,248,7.6,10.5,85,0.06,,,0.13,WUHU216HW,2013-05-13 20:11:00,
2013-05-13 13:16:00,56.9,52.0,29.95,SSW,203,4.9,11.0,84,0.18,,,0.25,WUHU216HW,2013-05-13 20:16:00,
2013-05-13 13:21:00,55.8,51.3,29.95,SW,225,4.9,11.0,85,0.27,,,0.34,WUHU216HW,2013-05-13 20:21:00,
2013-05-13 13:26:00,55.4,51.3,29.95,WSW,248,5.4,12.1,86,0.27,,,0.34,WUHU216HW,2013-05-13 20:26:00,
2013-05-13 13:31:00,55.8,51.9,29.95,WSW,248,3.8,12.1,87,0.27,,,0.34,WUHU216HW,2013-05-13 20:31:00,
2013-05-13 13:36:00,56.3,52.8,29.95,SW,225,7.4,11.0,88,0.27,,,0.34,WUHU216HW,2013-05-13 20:36:00,
2013-05-13 13:41:00,56.5,53.0,29.95,WSW,248,5.1,8.7,88,0.26,,,0.34,WUHU216HW,2013-05-13 20:41:00,
2013-05-13 13:46:00,56.2,52.7,29.95,West,270,2.5,11.4,88,0.25,,,0.34,WUHU216HW,2013-05-13 20:46:00,
2013-05-13 13:51:00,56.2,52.7,29.95,WNW,293,2.0,11.4,88,0.25,,,0.34,WUHU216HW,2013-05-13 20:51:00,
2013-05-13 13:56:00,56.2,52.7,29.95,WSW,248,6.3,6.3,88,0.25,,,0.34,WUHU216HW,2013-05-13 20:56:00,
2013-05-13 14:01:00,56.2,52.9,29.95,SE,135,1.1,6.9,89,0.25,,,0.34,WUHU216HW,2013-05-13 21:01:00,
2013-05-13 14:06:00,56.5,53.3,29.95,NNE,23,1.1,6.9,89,0.23,,,0.34,WUHU216HW,2013-05-13 21:06:00,
2013-05-13 14:11:00,56.9,53.6,29.96,SW,225,8.9,8.9,89,0.21,,,0.34,WUHU216HW,2013-05-13 21:11:00,
2013-05-13 14:16:00,57.1,53.8,29.96,East,90,0.4,8.9,89,0.08,,,0.34,WUHU216HW,2013-05-13 21:16:00,
2013-05-13 14:21:00,57.2,54.0,29.95,West,270,5.4,8.9,89,0.00,,,0.34,WUHU216HW,2013-05-13 21:21:00,
2013-05-13 14:26:00,57.6,54.4,29.96,NW,315,4.9,6.9,89,0.00,,,0.34,WUHU216HW,2013-05-13 21:26:00,
2013-05-13 14:31:00,58.0,54.7,29.95,WSW,248,2.2,8.7,89,0.00,,,0.34,WUHU216HW,2013-05-13 21:31:00,
2013-05-13 14:36:00,58.3,55.4,29.96,West,270,2.5,8.7,90,0.00,,,0.34,WUHU216HW,2013-05-13 21:36:00,
2013-05-13 14:41:00,58.1,54.3,29.96,SSW,203,5.6,11.9,87,0.00,,,0.34,WUHU216HW,2013-05-13 21:41:00,
2013-05-13 14:46:00,57.6,53.7,29.97,SSW,203,3.4,15.0,87,0.00,,,0.34,WUHU216HW,2013-05-13 21:46:00,
2013-05-13 14:51:00,57.2,53.4,29.97,SSE,158,2.0,15.0,87,0.00,,,0.34,WUHU216HW,2013-05-13 21:51:00,
2013-05-13 14:56:00,56.9,53.0,29.97,SSW,203,1.8,10.5,87,0.00,,,0.34,WUHU216HW,2013-05-13 21:56:00,
2013-05-13 15:01:00,56.5,52.7,29.98,SW,225,5.4,8.5,87,0.01,,,0.35,WUHU216HW,2013-05-13 22:01:00,
2013-05-13 15:06:00,56.2,52.3,29.98,SE,135,5.1,10.5,87,0.01,,,0.35,WUHU216HW,2013-05-13 22:06:00,
2013-05-13 15:11:00,56.2,52.3,29.97,WSW,248,2.7,12.8,87,0.01,,,0.35,WUHU216HW,2013-05-13 22:11:00,
2013-05-13 15:16:00,56.3,52.5,29.98,WSW,248,12.1,12.8,87,0.01,,,0.35,WUHU216HW,2013-05-13 22:16:00,
2013-05-13 15:21:00,56.7,52.8,29.98,South,180,0.7,12.1,87,0.01,,,0.35,WUHU216HW,2013-05-13 22:21:00,
2013-05-13 15:26:00,57.2,53.1,29.98,SE,135,1.1,7.6,86,0.01,,,0.35,WUHU216HW,2013-05-13 22:26:00,
2013-05-13 15:31:00,57.2,53.1,29.99,SW,225,7.6,9.2,86,0.01,,,0.35,WUHU216HW,2013-05-13 22:31:00,
2013-05-13 15:36:00,57.1,52.9,29.99,SW,225,5.6,10.7,86,0.01,,,0.35,WUHU216HW,2013-05-13 22:36:00,
2013-05-13 15:41:00,56.9,52.4,29.99,SW,225,4.9,10.7,85,0.01,,,0.35,WUHU216HW,2013-05-13 22:41:00,
2013-05-13 15:46:00,56.5,52.4,29.99,WNW,293,2.0,10.1,86,0.02,,,0.36,WUHU216HW,2013-05-13 22:46:00,
2013-05-13 15:51:00,56.2,52.0,29.99,SSW,203,7.2,13.9,86,0.02,,,0.36,WUHU216HW,2013-05-13 22:51:00,
2013-05-13 15:56:00,55.6,51.5,29.99,SSW,203,5.6,13.9,86,0.02,,,0.36,WUHU216HW,2013-05-13 22:56:00,
2013-05-13 16:01:00,54.7,50.0,30.00,NNE,23,8.1,11.9,84,0.01,,,0.36,WUHU216HW,2013-05-13 23:01:00,
2013-05-13 16:06:00,53.8,49.4,30.00,SW,225,3.4,12.5,85,0.02,,,0.37,WUHU216HW,2013-05-13 23:06:00,
2013-05-13 16:11:00,53.5,49.3,30.00,WSW,248,5.4,12.5,86,0.02,,,0.37,WUHU216HW,2013-05-13 23:11:00,
2013-05-13 16:16:00,53.8,49.7,30.00,SW,225,8.7,13.4,86,0.02,,,0.37,WUHU216HW,2013-05-13 23:16:00,
2013-05-13 16:21:00,54.0,49.9,30.00,WSW,248,2.7,13.4,86,0.02,,,0.37,WUHU216HW,2013-05-13 23:21:00,
2013-05-13 16:26:00,54.4,50.6,30.01,WSW,248,3.4,11.6,87,0.02,,,0.37,WUHU216HW,2013-05-13 23:26:00,
2013-05-13 16:31:00,54.4,50.2,30.02,SE,135,6.9,7.6,86,0.02,,,0.37,WUHU216HW,2013-05-13 23:31:00,
2013-05-13 16:36:00,54.4,50.2,30.02,North,0,2.9,10.5,86,0.02,,,0.37,WUHU216HW,2013-05-13 23:36:00,
2013-05-13 16:41:00,54.4,50.2,30.02,SSW,203,6.9,10.5,86,0.02,,,0.37,WUHU216HW,2013-05-13 23:41:00,
2013-05-13 16:46:00,54.2,50.0,30.03,SW,225,13.9,13.9,86,0.01,,,0.37,WUHU216HW,2013-05-13 23:46:00,
2013-05-13 16:51:00,53.1,48.1,30.04,West,270,4.7,14.5,83,0.03,,,0.39,WUHU216HW,2013-05-13 23:51:00,
2013-05-13 16:56:00,52.6,48.2,30.03,SW,225,7.6,14.5,85,0.03,,,0.39,WUHU216HW,2013-05-13 23:56:00,
2013-05-13 17:01:00,52.4,48.0,30.03,WSW,248,1.8,9.8,85,0.03,,,0.39,WUHU216HW,2013-05-14 00:01:00,
2013-05-13 17:06:00,52.4,48.2,30.04,WSW,248,5.4,10.1,86,0.02,,,0.39,WUHU216HW,2013-05-14 00:06:00,
2013-05-13 22:52:00,48.6,43.3,30.17,SW,225,1.8,3.6,82,0.00,,,0.39,WUHU216HW,2013-05-14 05:52:00,